#timestamp,LO_Frequency,Hit,StdDev 
1636696815.1,286046999.1,N
1636696816.0,286046999.1,N
1636696835.8,286046999.0,N
1636696855.6,286046999.0,N
1636696875.5,286046996.5,Y
1636696895.3,286046999.5,P
1636696915.2,286046996.5,P
1636696935.9,286046999.3,N
1636696955.7,286046999.4,N
1636696975.6,286046997.9,N
1636696995.4,286046997.9,N
1636697015.3,286046995.5,Y
1636697035.1,286046996.6,P
1636697055.8,286046999.1,N
1636697075.7,286046999.3,N
1636697095.5,286047000.8,N
1636697115.4,286046998.4,N
1636697135.2,286047001.0,N
1636697155.1,286046998.1,N
1636697156.0,286046998.1,N
1636697175.8,286046998.3,N
1636697195.6,286047000.9,N
1636697215.5,286047000.4,N
1636697235.3,286047001.0,N
1636697255.2,286047000.6,N
1636697275.9,286046998.4,N
1636697295.7,286047000.7,N
1636697315.6,286047000.5,N
1636697335.4,286046998.4,N
1636697355.3,286046998.2,N
1636697375.1,286047000.7,N
1636697376.0,286047000.7,N
1636697395.8,286046999.8,N
1636697415.7,286046998.1,N
1636697435.5,286047000.9,N
1636697455.4,286047000.8,N
1636697475.2,286047000.3,N
1636697495.0,286047002.8,N
1636697495.9,286047002.8,N
1636697515.8,286047002.8,N
1636697535.6,286046999.8,N
1636697555.5,286046999.8,N
1636697575.3,286047000.1,N
1636697595.1,286047001.1,N
1636697615.9,286047000.6,N
1636697635.7,286047000.9,N
1636697655.6,286047000.1,N
1636697675.4,286046999.9,N
1636697695.2,286046998.5,N
1636697715.1,286047000.0,N
1636697716.0,286047000.0,N
1636697735.8,286047001.2,N
1636697755.7,286047000.0,N
1636697775.5,286047000.7,N
1636697795.3,286047000.9,N
1636697815.2,286046999.7,N
1636697835.0,286047000.0,N
1636697835.9,286047000.0,N
1636697855.8,286047002.8,N
1636697875.6,286046999.9,N
1636697895.4,286047000.2,N
1636697915.3,286047000.5,N
1636697935.1,286046999.8,N
1636697955.8,286046999.9,N
1636697975.7,286047002.7,N
1636697995.5,286046999.8,N
1636698015.4,286047000.0,N
1636698035.2,286047000.5,N
1636698055.0,286047000.5,N
1636698055.9,286047000.5,N
1636698075.8,286047000.5,N
1636698095.6,286046998.5,N
1636698115.4,286046998.5,N
1636698135.3,286047001.1,N
1636698155.1,286047001.2,N
1636698175.9,286047000.4,N
1636698195.7,286046998.5,N
1636698215.5,286046998.3,N
1636698235.4,286046998.6,N
1636698255.2,286047001.0,N
1636698275.0,286047000.4,N
1636698275.9,286047000.4,N
1636698295.8,286047000.1,N
1636698315.6,286047000.3,N
1636698335.5,286047002.4,N
1636698355.3,286047002.4,N
1636698375.1,286047000.1,N
1636698395.9,286047000.8,N
1636698415.7,286047001.2,N
1636698435.5,286046999.8,N
1636698455.4,286047001.9,N
1636698475.2,286047001.8,N
1636698495.1,286047002.5,N
1636698496.0,286047002.5,N
1636698515.8,286047002.6,N
1636698535.6,286047002.5,N
1636698555.5,286046999.8,N
1636698575.3,286046999.7,N
1636698595.1,286046999.8,N
1636698615.9,286047002.4,N
1636698635.7,286047000.2,N
1636698655.6,286047000.3,N
1636698675.4,286046998.2,N
1636698695.2,286046999.4,N
1636698715.1,286047001.1,N
1636698716.0,286047001.1,N
1636698735.8,286046998.9,N
1636698755.7,286046998.2,N
1636698775.5,286047000.3,N
1636698795.3,286047001.0,N
1636698815.2,286046998.1,N
1636698835.0,286047001.0,N
1636698835.9,286047001.0,N
1636698855.7,286047000.0,N
1636698875.6,286047002.5,N
1636698895.4,286047002.4,N
1636698915.3,286046998.6,N
1636698935.1,286046999.0,N
1636698936.0,286046999.0,N
1636698955.8,286046996.8,N
1636698975.7,286046997.9,N
1636698995.5,286046997.2,N
1636699015.4,286046997.2,N
1636699035.2,286046997.7,N
1636699055.0,286046997.3,N
1636699055.9,286046997.3,N
1636699075.8,286046996.6,N
1636699095.6,286046998.9,N
1636699115.4,286046998.3,N
1636699135.3,286046998.1,N
1636699155.1,286046998.6,N
1636699175.9,286046998.7,N
1636699195.7,286046996.9,N
1636699215.5,286046999.1,N
1636699235.4,286046999.2,N
1636699255.2,286046996.7,N
1636699275.1,286046996.9,N
1636699276.0,286046996.9,N
1636699295.8,286046996.9,N
1636699315.6,286046996.6,N
1636699335.5,286046996.9,N
1636699355.3,286046999.0,N
1636699375.1,286046999.0,N
1636699395.9,286047001.0,N
1636699415.7,286047000.8,N
1636699435.6,286047000.8,N
1636699455.4,286046998.3,N
1636699475.2,286046999.4,N
1636699495.1,286046997.8,N
1636699496.0,286046997.8,N
1636699515.8,286046997.7,N
1636699535.7,286046997.8,N
1636699555.5,286046997.3,N
1636699575.3,286046997.3,N
1636699595.2,286046999.1,N
1636699615.0,286046998.8,N
1636699615.9,286046998.8,N
1636699635.8,286046998.3,N
1636699655.6,286046998.3,N
1636699675.4,286046998.7,N
1636699695.3,286046998.4,N
1636699715.1,286046997.2,N
1636699735.8,286046996.6,N
1636699755.7,286046996.5,N
1636699775.5,286046997.0,N
1636699795.4,286046996.5,N
1636699815.2,286046997.3,N
1636699835.0,286046997.7,N
1636699835.9,286046997.7,N
1636699855.8,286046995.3,Y
1636699875.6,286046997.0,P
1636699895.5,286046997.1,P
1636699915.3,286046997.1,P
1636699935.1,286046999.3,N
1636699955.9,286046998.4,N
1636699975.7,286046999.2,N
1636699995.5,286046997.0,Y
1636700015.4,286047000.4,P
1636700035.2,286047001.2,N
1636700055.1,286047000.5,N
1636700056.0,286047000.5,N
1636700075.8,286046998.2,N
1636700095.6,286047000.9,N
1636700115.5,286046998.9,N
1636700135.3,286046998.4,N
1636700155.2,286046999.1,N
1636700175.9,286046999.3,N
1636700195.7,286046998.2,N
1636700215.6,286046998.8,N
1636700235.4,286046999.4,N
1636700255.2,286046999.0,N
1636700275.1,286046999.0,N
1636700276.0,286046999.0,N
1636700295.8,286046999.5,N
1636700315.7,286046996.7,Y
1636700335.5,286046999.0,P
1636700355.3,286046999.4,P
1636700375.2,286046996.8,P
1636700395.0,286046997.8,N
1636700395.9,286046997.8,N
